Location: Auckland
(36.8670°S, 174.7670°E)
Time: 23:07:54
(UTC+12:00)

Courier 1B Rocket - Pass Details

Date: 21 July 2019
Orbit: 920 x 1202 km, 28.3° (Epoch: 20 August)

Event Time Altitude Azimuth Distance (km) Brightness Sun altitude
Rises 02:16:36 0° 343° (NNW) 4,087 - -61.2°
Reaches altitude 10° 02:22:10 10° 14° (NNE) 3,119 - -60.2°
Maximum altitude 02:24:17 11° 30° (NNE) 3,016 - -59.9°
Drops below altitude 10° 02:26:24 10° 46° (NE) 3,099 - -59.5°
Exits shadow 02:30:56 - 74° (ENE) 3,809 8.4 -58.6°
Sets 02:31:51 0° 78° (ENE) 4,015 8.6 -58.5°
